Location: Nuoro
(40.3167°N, 9.3500°E)
Time: 04:42:41
(UTC+00:00)

Daily predictions for brighter satellites

Satellite Brightness Start Highest point End
(mag) Time Altitude Azimuth Time Altitude Azimuth Time Altitude Azimuth
ADEOS II 3.8 00:57:27 10° NNE 01:00:27 28° ENE 01:00:27 28° ENE
USA 234 3.8 01:11:31 10° NE 01:17:35 49° NNW 01:17:35 49° NNW
Lacrosse 5 rocket 4.2 01:17:01 11° NNW 01:19:44 18° NNE 01:22:52 10° ENE
SL-16 R/B 3.4 01:23:17 41° NNW 01:23:17 41° NNW 01:27:14 10° NNW
CZ-2D R/B 3.4 01:24:39 10° N 01:27:57 36° NNW 01:27:57 36° NNW
SL-8 Rocket 4.2 01:30:50 10° N 01:37:04 64° E 01:37:07 64° E
Cosmos 2263 Rocket 4.3 01:38:15 16° NW 01:38:15 16° NW 01:40:43 10° N
IDEFIX/ARIANE 42P 3.5 01:38:41 10° NNE 01:43:20 41° E 01:43:20 41° E
ADEOS Rocket 3.6 01:45:57 38° SE 01:48:02 55° ENE 01:54:24 10° N
Resurs 1-4 Rocket 3.6 01:44:20 10° N 01:47:14 28° NNW 01:47:14 28° NNW
Cosmos 1844 Rocket 3.4 01:55:14 44° NNW 01:55:14 44° NNW 01:59:31 10° NNE
Cosmos 2218 Rocket 4.0 01:48:07 10° N 01:54:16 73° E 01:54:49 68° ESE
Cosmos 1733 Rocket 4.3 02:01:34 10° N 02:04:16 36° N 02:04:16 36° N
Cosmos 2278 Rocket 3.4 02:09:19 30° SE 02:10:56 37° ESE 02:16:05 10° NE
SL-4 R/B 4.2 02:11:57 22° NNW 02:12:52 23° NNW 02:16:44 10° NE
Cosmos 1862 Rocket 4.2 02:17:29 50° N 02:17:29 50° N 02:20:47 10° N
Cosmos 1833 Rocket 4.4 02:11:47 10° N 02:16:49 32° ENE 02:21:48 10° ESE
Cosmos 2366 rocket 3.8 02:10:49 10° N 02:16:59 77° W 02:17:31 71° SW
Cosmos 864 Rocket 4.3 02:12:21 10° N 02:18:38 78° W 02:19:29 66° SSW
Cosmos 1959 Rocket 4.4 02:16:09 10° NNW 02:22:29 70° W 02:23:17 63° SW
Meteor 2-9 Rocket 4.4 02:17:32 10° N 02:23:22 75° E 02:26:28 29° SSE
ARIANE 5 R/B 2.7 02:20:31 10° NNE 02:25:45 70° ESE 02:26:51 53° SSE
USA 305 3.8 02:26:53 41° NNW 02:26:53 41° NNW 02:30:29 10° NE
CZ-4B R/B 3.2 02:23:57 10° NNE 02:28:43 87° ESE 02:28:54 83° SSE
IRS-1D 4.3 02:27:52 10° N 02:31:57 37° NW 02:31:57 37° NW
Cosmos 1777 Rocket 4.1 02:33:01 58° WNW 02:33:01 58° WNW 02:38:11 10° NNE
MSX 3.7 02:28:52 10° NNE 02:34:39 88° ESE 02:36:22 48° SSW
Gbstr 26 Del rocket 3.9 02:35:45 47° S 02:36:54 56° SE 02:41:48 10° ENE
Nadezhda 3 Rocket 4.2 02:33:18 27° S 02:36:56 71° E 02:43:17 10° NNE
COSMOS 2441 4.3 02:35:49 10° NNE 02:40:41 88° ESE 02:41:41 57° S
ADEOS II 3.2 02:37:24 10° N 02:41:23 27° WNW 02:41:23 27° WNW
ERBS 3.3 02:42:47 43° E 02:42:47 43° E 02:45:18 10° NE
IRS-1C 4.1 02:36:58 10° N 02:42:16 67° WNW 02:43:11 56° WSW
Cosmos 1975 2.8 02:38:49 10° N 02:42:37 78° NNW 02:42:37 78° NNW
USA 306 3.9 02:43:28 34° NW 02:43:42 34° NNW 02:47:38 10° NE
CZ-2C R/B 3.5 02:41:54 10° NNE 02:46:19 40° E 02:50:01 14° SSE
Meteor 2-4 Rocket 3.8 02:43:38 32° S 02:46:29 83° E 02:52:28 10° N
Milstar 3 4.2 02:45:32 25° SSW 02:49:07 34° SSE 03:00:24 10° E
SJ 16-02 1.2 02:48:53 69° WSW 02:49:13 74° WNW 02:53:39 10° NNE
Gblst 52 Del rocket 4.2 02:50:04 46° SW 02:51:57 89° SE 02:57:34 10° NE
Cosmos 1538 Rocket 3.9 02:48:50 10° NNW 02:54:14 78° WSW 02:59:35 10° SSE
BREEZE-M DEB (TANK) 3.5 02:50:42 10° NW 02:55:10 42° NNE 02:57:28 10° E
USA 307 4.1 02:56:11 28° NW 02:56:59 30° NNW 03:00:49 10° NNE
Lacrosse 5 rocket 1.7 02:55:01 10° NW 02:59:34 75° NE 03:04:11 10° SE
SL-08 R/B 3.4 03:00:33 31° SSW 03:02:45 59° W 03:07:36 10° NNW
PAYLOAD A 4.1 03:02:38 10° NNE 03:07:55 77° ESE 03:11:55 17° S
USA 308 4.4 03:08:00 22° WNW 03:09:21 26° NNW 03:12:59 10° NNE
Okean 1-7 3.1 03:14:48 37° SW 03:16:11 54° W 03:20:24 10° N
deb Kosmos-1763 4.3 03:14:49 10° NNW 03:18:20 64° ENE 03:21:49 10° SSE
ATLAS 5 CENTAUR R/B 3.5 03:12:58 10° NNW 03:18:28 47° NE 03:24:51 10° SE
ALOS 3.1 03:17:16 10° NNE 03:21:49 49° E 03:26:19 10° S
IDEFIX/ARIANE 42P 3.8 03:18:49 10° NNW 03:22:56 24° WNW 03:24:09 22° W
Cosmos 1680 Rocket 4.0 03:19:58 10° NNW 03:25:14 65° ENE 03:30:30 10° SSE
Cosmos 158 Rocket 3.7 03:21:24 10° NNW 03:26:21 69° WSW 03:31:11 10° S
Cosmos 1934 Rocket 4.0 03:20:03 10° N 03:26:26 90° E 03:32:41 10° S
Cosmos 1908 Rocket 4.1 03:22:57 10° NNW 03:27:00 37° W 03:28:57 24° SW
BREEZE M DEB (TANK) 3.9 03:31:07 23° SW 03:32:08 25° SSW 03:39:21 10° SSE
Cosmos 2082 Rocket 2.6 03:27:23 10° NNW 03:32:59 66° ENE 03:38:33 10° SSE
Okean 2 Rocket 4.4 03:28:45 10° N 03:33:01 42° ENE 03:37:12 10° SSE
Meteor 1-13 Rocket 4.3 03:27:57 10° SSW 03:33:51 77° W 03:39:42 10° N
ADEOS Rocket 4.1 03:32:53 21° WSW 03:34:01 22° W 03:38:49 10° NW
Hubble Space Telescope 2.9 03:40:16 12° SSW 03:40:44 12° SSW 03:42:22 10° SSE
CZ-2C R/B 3.3 03:40:38 10° N 03:44:06 38° WNW 03:46:22 19° SW
FENGYUN 3A 3.6 03:41:54 10° NNE 03:47:20 86° WNW 03:52:43 10° SSW
COSMOS 2406 3.4 03:42:33 10° NW 03:47:55 45° WSW 03:53:16 10° S
Cosmos 923 Rocket 4.0 03:44:27 10° NNW 03:49:33 57° WSW 03:54:38 10° S
SL-24 R/B 4.1 03:47:19 10° SSE 03:52:07 87° WSW 03:56:18 10° NNW
Cosmos 1484 Rocket 2.9 03:49:03 10° NNE 03:53:00 82° ESE 03:56:59 10° S
CZ-4C R/B 3.5 03:50:14 10° SSE 03:53:48 66° ENE 03:57:19 10° N
SL-4 R/B 4.5 03:50:01 10° NW 03:53:49 22° N 03:57:33 10° ENE
Cosmos 1066 Rocket 4.3 03:48:31 10° SSW 03:54:15 69° W 04:00:07 10° N
Cosmos 1782 Rocket 4.2 03:50:18 10° NNW 03:54:21 35° W 03:58:24 10° SSW
Cosmos 2278 Rocket 3.1 03:51:11 16° WSW 03:55:01 32° WNW 04:00:04 10° N
Okean 3 4.1 03:52:42 11° SW 03:56:31 38° WNW 04:00:33 10° N
NOSS 3-3 (A) 4.4 03:54:04 14° WSW 03:58:44 45° NW 04:04:57 10° NNE
NOSS 3-3 (C) 4.4 03:54:10 14° WSW 03:58:50 45° NW 04:05:04 10° NNE
Cosmos 1727 Rocket 4.3 03:53:08 10° S 03:59:16 71° E 04:05:28 10° NNE
Sich 1 Rocket 3.6 03:55:02 10° NNW 03:59:33 65° W 04:04:05 10° S
Cosmos 1833 Rocket 3.2 03:55:37 10° NW 04:00:44 37° WSW 04:05:51 10° S
Cosmos 1766 3.9 03:56:57 10° N 04:00:55 62° E 04:04:50 10° SSE
USA 81 4.4 03:56:31 10° NNW 04:01:31 44° W 04:06:29 10° SSW
DELTA 2 R/B (1) 4.1 03:56:39 13° SW 04:01:32 51° SSE 04:06:56 10° E
ARIANE 5 R/B 4.3 04:01:13 10° NNW 04:04:14 16° WNW 04:07:12 10° W
MOS 1 Rocket 4.3 03:59:06 10° SSE 04:04:17 61° ENE 04:09:39 10° N
Cosmos 1356 Rocket 3.4 04:10:13 10° NNW 04:14:11 56° W 04:18:13 10° S
Cosmos 1300 Rocket 3.8 04:11:42 10° NNW 04:15:59 50° W 04:20:17 10° SSW
Cosmos 1898 Rocket 4.2 04:11:30 10° SW 04:16:18 37° WNW 04:21:10 10° N
Abrixas rocket 1.2 04:14:26 10° NW 04:16:35 73° NNE 04:18:42 10° ESE
Cosmos 2297 3.8 04:11:50 10° SSW 04:17:35 80° WNW 04:23:20 10° NNE
PSLV R/B 4.4 04:14:08 10° N 04:17:54 31° WNW 04:21:37 10° SW
ERBS 4.3 04:16:13 10° WNW 04:18:26 17° NNW 04:20:40 10° N
Meteor 1-15 Rocket 4.3 04:15:25 10° NNW 04:20:52 57° W 04:26:18 10° S
Landsat 5 3.8 04:17:08 10° S 04:21:22 51° W 04:25:44 10° NNW
FALCON 9 DEB 4.2 04:18:35 10° NW 04:21:57 47° NE 04:25:18 10° ESE
Okean 1 Rocket 4.1 04:18:53 10° N 04:23:17 53° E 04:27:39 10° SSE
Gbstr 26 Del rocket 4.2 04:18:55 10° W 04:24:01 37° NNW 04:28:16 10° NE
CZ-2C R/B 3.7 04:20:50 10° NNW 04:24:17 21° WNW 04:27:46 10° WSW
ADEOS 3.7 04:20:04 10° NNE 04:25:19 84° ESE 04:30:32 10° SSW
Cosmos 1937 Rocket 4.0 04:20:48 10° SW 04:25:39 41° WNW 04:30:32 10° N
